Location: Boiro
(42.6475°N, 8.8834°W)
Time: 02:58:06
(UTC+02:00)

DELFI C3 - Visible Passes

Search period start: 18 August 2022 00:00
Search period end: 28 August 2022 00:00
Orbit: 513 x 529 km, 97.3° (Epoch: 17 August)

Date Brightness Start Highest point End Pass type
(mag) Time Alt. Az. Time Alt. Az. Time Alt. Az.
19 Aug ? 22:30:12 10° WSW 22:31:44 12° W 22:33:15 10° WNW visible
20 Aug ? 22:15:50 10° SW 22:18:22 17° W 22:20:55 10° NW visible
21 Aug ? 22:01:55 10° SSW 22:05:01 24° W 22:08:08 10° NW visible
26 Aug ? 22:31:29 10° WSW 22:32:46 11° W 22:34:04 10° WNW visible
27 Aug ? 22:16:50 10° SW 22:19:16 16° W 22:21:42 10° NW visible
